#timestamp,LO_Frequency,Hit,StdDev 
1509717615.7,286047005.4,N
1509717635.5,286047002.1,N
1509717655.3,286047005.7,N
1509717675.2,286047001.1,N
1509717695.9,286046995.4,N
1509717715.7,286046996.7,N
1509717735.6,286046998.3,N
1509717755.4,286047000.6,N
1509717775.2,286047001.9,N
1509717795.1,286047002.0,N
1509717796.0,286047002.0,N
1509717815.8,286047005.6,N
1509717835.6,286046999.6,N
1509717855.5,286046996.5,N
1509717875.3,286046998.8,N
1509717895.1,286047002.6,N
1509717915.9,286047002.0,N
1509717935.7,286046998.4,N
1509717955.5,286047001.2,N
1509717975.4,286046999.7,N
1509717995.2,286047004.0,N
1509718015.0,286047002.2,N
1509718015.9,286047002.2,N
1509718035.8,286047002.7,N
1509718055.6,286047002.7,N
1509718075.4,286046997.1,N
1509718095.3,286046996.2,N
1509718115.1,286046996.0,N
1509718135.8,286046998.0,N
1509718155.7,286047002.6,N
1509718175.5,286047004.1,N
1509718195.4,286047000.6,N
1509718215.2,286047000.0,N
1509718235.0,286047000.0,N
1509718235.9,286047000.0,N
1509718255.8,286047000.9,N
1509718275.6,286047002.6,N
1509718295.4,286047005.1,N
1509718315.3,286047000.2,N
1509718335.1,286047000.7,N
1509718336.0,286047000.7,N
1509718355.8,286046996.5,N
1509718375.7,286047001.1,N
1509718395.5,286047002.8,N
1509718415.3,286047000.0,N
1509718435.2,286046998.1,N
1509718455.9,286046997.0,N
1509718475.7,286047000.7,N
1509718495.6,286046999.9,N
1509718515.4,286046999.9,N
1509718535.2,286047000.5,N
1509718555.1,286047005.5,N
1509718556.0,286047005.5,N
1509718575.8,286047002.4,N
1509718595.6,286047007.5,N
1509718615.5,286047008.7,Y
1509718635.3,286047005.6,P
1509718655.2,286047001.3,N
1509718675.9,286047002.6,N
1509718695.7,286047004.3,N
1509718715.6,286047002.5,N
1509718735.4,286047000.6,N
1509718755.2,286047001.2,N
1509718775.1,286047000.5,N
1509718776.0,286047000.5,N
1509718795.8,286047000.1,N
1509718815.6,286046999.2,N
1509718835.5,286046998.8,N
1509718855.3,286047000.2,N
1509718875.1,286046998.5,N
1509718895.9,286047001.2,N
1509718915.7,286047004.0,N
1509718935.5,286047004.4,N
1509718955.4,286047006.6,Y
1509718975.2,286047004.5,P
1509718995.0,286047001.8,N
1509718996.0,286047001.8,N
1509719015.8,286047002.4,N
1509719035.6,286047005.8,Y
1509719055.5,286047005.5,P
1509719075.3,286047007.0,P
1509719095.1,286047007.3,P
1509719115.9,286047004.9,N
1509719135.7,286047001.4,N
1509719155.5,286047000.4,N
1509719175.4,286046998.2,N
1509719195.2,286046998.5,N
1509719215.0,286046998.0,N
1509719215.9,286046998.0,N
1509719235.8,286046998.2,N
1509719255.6,286047001.3,N
1509719275.4,286046999.5,N
1509719295.3,286047005.8,N
1509719315.1,286047004.4,N
1509719335.8,286047004.3,N
1509719355.7,286047005.1,N
1509719375.5,286047006.2,N
1509719395.3,286047007.4,N
1509719415.2,286047003.7,N
1509719435.0,286047005.6,N
1509719435.9,286047005.6,N
1509719455.7,286047003.4,N
1509719475.6,286047003.8,N
1509719495.4,286047001.7,N
1509719515.2,286047003.3,N
1509719535.1,286047003.5,N
1509719536.0,286047003.5,N
1509719555.8,286047005.5,N
1509719575.7,286047006.8,N
1509719595.5,286047004.8,N
1509719615.3,286047005.5,N
1509719635.1,286047005.5,N
1509719655.9,286047003.6,N
1509719675.7,286047004.7,N
1509719695.6,286047005.3,N
1509719715.4,286047005.3,N
1509719735.2,286047009.1,Y
1509719755.1,286047004.2,P
1509719756.0,286047004.2,P
1509719775.8,286047002.8,P
1509719795.6,286047003.5,Y
1509719815.5,286046995.8,P
1509719835.3,286046997.4,N
1509719855.1,286046996.5,N
1509719875.9,286046998.4,N
1509719895.7,286046995.3,N
1509719915.5,286046995.2,N
1509719935.4,286046995.7,N
1509719955.2,286046994.7,N
1509719975.0,286046995.8,N
1509719976.0,286046995.8,N
1509719995.8,286046995.6,N
1509720015.6,286046992.2,Y
1509720035.5,286046999.4,P
1509720055.3,286046999.4,N
1509720075.1,286046996.8,N
1509720095.9,286046997.8,N
1509720115.7,286046997.1,N
1509720135.5,286046998.9,N
1509720155.4,286047000.5,N
1509720175.2,286046998.6,N
1509720195.0,286047002.6,N
1509720195.9,286047002.6,N
1509720215.8,286047002.1,N
1509720235.6,286046997.2,N
1509720255.4,286046996.5,N
1509720275.3,286046997.7,N
1509720295.1,286046993.5,Y
1509720315.8,286046996.6,P
1509720335.7,286047002.4,N
1509720355.5,286047001.8,N
1509720375.3,286046998.2,N
1509720395.2,286046997.2,N
1509720415.0,286047000.8,N
1509720415.9,286047000.8,N
1509720435.8,286046995.0,N
1509720455.6,286046994.1,N
1509720475.4,286046994.5,N
1509720495.3,286046994.2,N
1509720515.1,286046995.4,N
1509720535.8,286046996.6,N
1509720555.7,286046998.1,N
1509720575.5,286047000.9,N
1509720595.3,286047001.0,N
1509720615.2,286047003.2,N
1509720635.0,286047003.6,N
1509720635.9,286047003.6,N
1509720655.7,286046998.7,N
1509720675.6,286046996.9,N
1509720695.4,286047004.7,N
1509720715.2,286047009.0,N
1509720735.1,286047009.4,N
1509720736.0,286047009.4,N
1509720755.8,286047016.7,Y
1509720775.7,286047015.5,P
1509720795.5,286047010.4,N
1509720815.3,286047012.4,N
1509720835.2,286047010.3,N
1509720855.9,286047010.0,N
1509720875.7,286047010.0,N
1509720895.6,286047006.3,N
1509720915.4,286047001.8,N
1509720935.2,286047000.8,N
1509720955.1,286046996.3,N
1509720956.0,286046996.3,N
1509720975.8,286047000.4,N
1509720995.6,286046996.9,N
1509721015.5,286046995.0,N
1509721035.3,286046998.2,N
1509721055.1,286046998.5,N
1509721075.9,286046999.4,N
1509721095.7,286046997.9,N
1509721115.5,286046994.3,N
1509721135.4,286046994.0,N
1509721155.2,286046990.2,N
1509721175.0,286046989.4,N
1509721175.9,286046989.4,N
1509721195.8,286046984.5,N
